| time (UTC) | temp F | wind direction | speed knots | gust knots | rain 1hr in | rain 24hr in | rain mn in | humidity % | barometer mb |
| 20260508163029 | 54 | 36 | 3.5 | 9.6 | 0.00 | 0.75 | 0.01 | 84 | 1001.4 |
| 20260508161519 | 53 | 41 | 5.2 | 10.4 | 0.00 | 0.75 | 0.01 | 85 | 1001.4 |
| 20260508160022 | 53 | 360 | 3.5 | 11.3 | 0.00 | 0.75 | 0.01 | 84 | 1001.4 |
| 20260508154518 | 53 | 344 | 1.7 | 9.6 | 0.00 | 0.75 | 0.01 | 86 | 1001.3 |
| 20260508153016 | 53 | 29 | 4.3 | 9.6 | 0.00 | 0.75 | 0.01 | 84 | 1001.3 |
| 20260508151514 | 54 | 38 | 3.5 | 8.7 | 0.00 | 0.75 | 0.01 | 85 | 1001.3 |
| 20260508150034 | 53 | 24 | 2.6 | 7.8 | 0.00 | 0.75 | 0.01 | 86 | 1001.5 |
| 20260508144513 | 54 | 342 | 1.7 | 7.0 | 0.00 | 0.75 | 0.01 | 85 | 1001.6 |
| 20260508143015 | 55 | 5 | 1.7 | 5.2 | 0.00 | 0.75 | 0.01 | 85 | 1001.7 |
| 20260508141518 | 55 | 342 | 1.7 | 6.1 | 0.00 | 0.75 | 0.01 | 84 | 1001.7 |
| 20260508140021 | 55 | 360 | 1.7 | 5.2 | 0.00 | 0.75 | 0.01 | 82 | 1001.7 |
| 20260508134511 | 56 | 5 | 1.7 | 3.5 | 0.00 | 0.75 | 0.01 | 82 | 1002.1 |
| 20260508133011 | 56 | 40 | 1.7 | 7.0 | 0.00 | 0.75 | 0.01 | 82 | 1002.0 |
| 20260508131507 | 55 | 170 | 0.9 | 3.5 | 0.00 | 0.75 | 0.01 | 78 | 1001.7 |
| 20260508130003 | 54 | 117 | 0.0 | 1.7 | 0.00 | 0.75 | 0.01 | 86 | 1001.7 |
| 20260508124558 | 51 | 128 | 0.9 | 2.6 | 0.00 | 0.75 | 0.01 | 93 | 1001.5 |
| 20260508123056 | 49 | 223 | 0.9 | 3.5 | 0.00 | 0.75 | 0.01 | 97 | 1001.6 |
| 20260508121553 | 49 | 82 | 0.0 | 2.6 | 0.00 | 0.75 | 0.01 | 98 | 1002.0 |
| 20260508120050 | 48 | 83 | 0.9 | 3.5 | 0.00 | 0.75 | 0.01 | 99 | 1002.1 |
| 20260508114549 | 47 | 61 | 1.7 | 2.6 | 0.00 | 0.75 | 0.01 | 99 | 1002.2 |
| 20260508113049 | 46 | 98 | 0.9 | 2.6 | 0.00 | 0.75 | 0.01 | 99 | 1002.3 |
| 20260508111559 | 45 | 78 | 0.0 | 0.0 | 0.00 | 0.75 | 0.01 | 99 | 1002.3 |
| 20260508110048 | 44 | 33 | 0.0 | 0.0 | 0.00 | 0.75 | 0.01 | 99 | 1002.3 |
| 20260508104548 | 44 | 33 | 0.0 | 0.0 | 0.00 | 0.75 | 0.01 | 99 | 1002.7 |
| 20260508103051 | 44 | 33 | 0.0 | 0.0 | 0.00 | 0.75 | 0.01 | 99 | 1002.6 |
| 20260508101548 | 44 | 33 | 0.0 | 0.0 | 0.00 | 0.75 | 0.01 | 99 | 1002.5 |
| 20260508100045 | 44 | 33 | 0.0 | 0.0 | 0.00 | 0.75 | 0.01 | 99 | 1002.4 |
| 20260508094644 | 44 | 33 | 0.0 | 0.0 | 0.00 | 0.75 | 0.01 | 99 | 1002.1 |
| 20260508093042 | 44 | 33 | 0.0 | 0.0 | 0.00 | 0.75 | 0.01 | 99 | 1002.0 |
| 20260508091549 | 44 | 33 | 0.0 | 0.0 | 0.00 | 0.75 | 0.01 | 99 | 1002.0 |
| 20260508090041 | 44 | 33 | 0.0 | 1.7 | 0.00 | 0.75 | 0.01 | 99 | 1002.1 |
| 20260508084540 | 44 | 33 | 0.0 | 0.0 | 0.00 | 0.75 | 0.01 | 99 | 1002.1 |
| 20260508083048 | 44 | 33 | 0.0 | 0.0 | 0.00 | 0.75 | 0.01 | 99 | 1001.6 |
| 20260508081541 | 44 | 33 | 0.0 | 0.9 | 0.00 | 0.75 | 0.01 | 99 | 1001.6 |
| 20260508080054 | 44 | 33 | 0.0 | 1.7 | 0.00 | 0.75 | 0.01 | 99 | 1001.3 |
| 20260508074537 | 44 | 33 | 0.0 | 0.0 | 0.00 | 0.75 | 0.01 | 99 | 1001.4 |
| 20260508073040 | 44 | 33 | 0.0 | 1.7 | 0.00 | 0.75 | 0.01 | 98 | 1001.6 |
| 20260508071534 | 44 | 33 | 0.0 | 0.9 | 0.00 | 0.75 | 0.01 | 98 | 1001.7 |
| 20260508070033 | 44 | 33 | 0.0 | 0.9 | 0.00 | 0.75 | 0.01 | 98 | 1001.6 |
| 20260508064542 | 44 | 33 | 0.0 | 0.9 | 0.00 | 0.75 | 0.01 | 98 | 1001.8 |
| 20260508063031 | 45 | 33 | 0.0 | 3.5 | 0.00 | 0.75 | 0.01 | 98 | 1001.7 |
| 20260508061533 | 45 | 39 | 1.7 | 4.3 | 0.00 | 0.75 | 0.01 | 98 | 1001.8 |
| 20260508060029 | 45 | 43 | 0.9 | 5.2 | 0.00 | 0.75 | 0.01 | 98 | 1001.9 |
| 20260508054539 | 45 | 29 | 1.7 | 4.3 | 0.00 | 0.75 | 0.01 | 98 | 1001.8 |
| 20260508053023 | 46 | 38 | 0.9 | 3.5 | 0.00 | 0.75 | 0.01 | 98 | 1002.0 |
| 20260508051520 | 47 | 15 | 0.0 | 2.6 | 0.00 | 0.75 | 0.01 | 98 | 1002.0 |
| 20260508050019 | 47 | 40 | 0.0 | 0.0 | 0.00 | 0.75 | 0.01 | 98 | 1001.8 |
| 20260508044519 | 47 | 40 | 0.0 | 0.0 | 0.00 | 0.75 | 0.01 | 98 | 1001.8 |
| 20260508043017 | 47 | 40 | 0.0 | 2.6 | 0.00 | 0.75 | 0.01 | 98 | 1001.9 |
| 20260508041516 | 47 | 40 | 0.0 | 0.0 | 0.00 | 0.75 | 0.01 | 98 | 1002.0 |
| 20260508040034 | 48 | 40 | 0.0 | 0.0 | 0.01 | 0.75 | 0.01 | 98 | 1002.0 |
| 20260508034513 | 48 | 40 | 0.0 | 0.0 | 0.01 | 0.75 | 0.01 | 98 | 1002.1 |
| 20260508033013 | 48 | 40 | 0.0 | 0.0 | 0.01 | 0.75 | 0.01 | 98 | 1002.3 |
| 20260508031514 | 48 | 40 | 0.0 | 0.0 | 0.01 | 0.75 | 0.01 | 98 | 1002.2 |
| 20260508030009 | 48 | 40 | 0.0 | 0.0 | 0.00 | 0.74 | 0.74 | 98 | 1002.4 |
| 20260508024519 | 48 | 40 | 0.0 | 0.0 | 0.00 | 0.74 | 0.74 | 98 | 1002.3 |
| 20260508023010 | 48 | 40 | 0.9 | 1.7 | 0.00 | 0.74 | 0.74 | 97 | 1002.3 |
| 20260508021506 | 49 | 40 | 0.0 | 2.6 | 0.00 | 0.74 | 0.74 | 97 | 1002.6 |
| 20260508020006 | 49 | 46 | 0.9 | 3.5 | 0.00 | 0.74 | 0.74 | 97 | 1002.5 |
| 20260508014505 | 49 | 34 | 0.0 | 4.3 | 0.00 | 0.74 | 0.74 | 97 | 1002.7 |
| 20260508013003 | 49 | 38 | 0.9 | 5.2 | 0.01 | 0.74 | 0.74 | 97 | 1002.6 |
| 20260508011601 | 49 | 34 | 0.9 | 3.5 | 0.01 | 0.74 | 0.74 | 97 | 1002.3 |
| 20260508010059 | 50 | 27 | 1.7 | 6.1 | 0.02 | 0.74 | 0.74 | 97 | 1002.2 |
| 20260508004559 | 51 | 223 | 0.0 | 1.7 | 0.03 | 0.74 | 0.74 | 97 | 1002.3 |
| 20260508003055 | 51 | 231 | 2.6 | 6.1 | 0.03 | 0.73 | 0.73 | 97 | 1002.1 |
| 20260508001550 | 53 | 265 | 3.5 | 8.7 | 0.04 | 0.73 | 0.73 | 97 | 1002.2 |
| 20260508000055 | 53 | 207 | 1.7 | 5.2 | 0.02 | 0.72 | 0.72 | 97 | 1002.0 |
| 20260507234555 | 53 | 144 | 0.0 | 0.0 | 0.02 | 0.71 | 0.71 | 97 | 1001.9 |
| 20260507233109 | 53 | 158 | 0.0 | 2.6 | 0.01 | 0.70 | 0.70 | 97 | 1001.8 |
| 20260507231548 | 53 | 158 | 0.9 | 2.6 | 0.00 | 0.69 | 0.69 | 97 | 1001.7 |
| 20260507230049 | 53 | 74 | 0.0 | 2.6 | 0.00 | 0.69 | 0.69 | 97 | 1001.5 |
| 20260507224548 | 53 | 97 | 0.9 | 1.7 | 0.00 | 0.69 | 0.69 | 97 | 1001.8 |
| 20260507223056 | 53 | 97 | 0.0 | 1.7 | 0.00 | 0.69 | 0.69 | 97 | 1001.4 |
| 20260507221545 | 53 | 97 | 1.7 | 2.6 | 0.00 | 0.69 | 0.69 | 96 | 1001.6 |
| 20260507220044 | 53 | 98 | 0.0 | 1.7 | 0.00 | 0.69 | 0.69 | 96 | 1001.7 |
| 20260507214546 | 54 | 98 | 0.0 | 0.9 | 0.00 | 0.69 | 0.69 | 96 | 1001.6 |
| 20260507213045 | 54 | 107 | 0.0 | 5.2 | 0.00 | 0.69 | 0.69 | 96 | 1001.7 |
| 20260507211550 | 54 | 77 | 0.9 | 4.3 | 0.00 | 0.69 | 0.69 | 96 | 1001.6 |
| 20260507210103 | 54 | 118 | 0.9 | 3.5 | 0.01 | 0.69 | 0.69 | 96 | 1001.8 |
| 20260507204547 | 53 | 130 | 0.0 | 5.2 | 0.01 | 0.69 | 0.69 | 96 | 1001.5 |
| 20260507203043 | 53 | 130 | 0.9 | 6.1 | 0.04 | 0.69 | 0.69 | 96 | 1001.8 |
| 20260507201539 | 53 | 113 | 0.9 | 5.2 | 0.09 | 0.69 | 0.69 | 96 | 1001.1 |
| 20260507200048 | 54 | 128 | 2.6 | 6.1 | 0.11 | 0.69 | 0.69 | 96 | 1001.5 |
| 20260507194547 | 54 | 117 | 2.6 | 6.1 | 0.13 | 0.69 | 0.69 | 96 | 1001.8 |
| 20260507193032 | 54 | 105 | 2.6 | 6.1 | 0.16 | 0.65 | 0.65 | 97 | 1002.1 |
| 20260507191528 | 55 | 35 | 1.7 | 5.2 | 0.16 | 0.61 | 0.61 | 96 | 1003.3 |
| 20260507190040 | 55 | 349 | 0.0 | 1.7 | 0.20 | 0.56 | 0.56 | 96 | 1003.5 |
| 20260507184533 | 55 | 349 | 0.0 | 2.6 | 0.28 | 0.56 | 0.56 | 96 | 1003.4 |
| 20260507183025 | 55 | 241 | 0.9 | 6.1 | 0.35 | 0.50 | 0.50 | 96 | 1004.0 |
| 20260507181525 | 55 | 200 | 0.9 | 7.0 | 0.42 | 0.45 | 0.45 | 96 | 1004.0 |
| 20260507180024 | 55 | 199 | 6.1 | 8.7 | 0.35 | 0.36 | 0.36 | 95 | 1004.3 |
| 20260507174524 | 56 | 180 | 3.5 | 13.0 | 0.25 | 0.26 | 0.26 | 95 | 1004.6 |
| 20260507173126 | 56 | 198 | 5.2 | 13.0 | 0.15 | 0.15 | 0.15 | 94 | 1004.1 |
| 20260507171518 | 57 | 186 | 3.5 | 13.9 | 0.03 | 0.03 | 0.03 | 93 | 1003.8 |
| 20260507170020 | 57 | 155 | 7.0 | 18.2 | 0.02 | 0.02 | 0.02 | 92 | 1003.7 |
| 20260507164522 | 58 | 146 | 10.4 | 16.5 | 0.01 | 0.01 | 0.01 | 90 | 1003.9 |